YMA7002 MMVA-MHLM

Flight info

Callsign YMA7002
Flight time N/A
Altitude 30000
Route OLORI DCT PESGA
Aircraft B738/M-SDE2E3FGHIRWXY/LB1

Departure

Time 2026-04-21 09:41
Airport Carlos Rovirosa Pérez International Airport (MMVA)

Arrival

Time N/A
Airport Ramón Villeda Morales International Airport (MHLM)
Time Latitude Longitude Altitude Speed Heading
2026-04-21 09:20 17.99360 -92.81974 48 ft 0 kts 177°
2026-04-21 09:36 17.99395 -92.81976 48 ft 2 kts 180°
2026-04-21 09:36 17.99392 -92.81979 48 ft 1 kts 227°
2026-04-21 09:37 17.99409 -92.82003 47 ft 6 kts 330°
2026-04-21 09:37 17.99494 -92.82039 47 ft 19 kts 315°
2026-04-21 09:37 17.99568 -92.82174 44 ft 22 kts 297°
2026-04-21 09:37 17.99637 -92.82321 41 ft 22 kts 287°
2026-04-21 09:38 17.99647 -92.82490 38 ft 23 kts 266°
2026-04-21 09:38 17.99631 -92.82636 38 ft 14 kts 245°
2026-04-21 09:38 17.99585 -92.82723 37 ft 13 kts 288°
2026-04-21 09:38 17.99636 -92.82718 37 ft 0 kts 83°
2026-04-21 09:40 17.99640 -92.82644 38 ft 35 kts 87°
2026-04-21 09:40 17.99664 -92.82050 46 ft 125 kts 87°
2026-04-21 09:40 17.99731 -92.80920 367 ft 170 kts 86°
2026-04-21 09:41 17.99848 -92.79663 1187 ft 184 kts 83°
2026-04-21 09:41 18.00031 -92.78347 2094 ft 190 kts 82°
2026-04-21 09:41 18.00119 -92.76920 2785 ft 203 kts 92°
2026-04-21 09:41 17.99972 -92.75419 3522 ft 216 kts 96°
2026-04-21 09:42 17.99848 -92.73807 4165 ft 234 kts 90°
2026-04-21 09:42 17.99875 -92.71983 4724 ft 258 kts 86°
2026-04-21 09:42 17.99964 -92.70133 5726 ft 260 kts 85°
2026-04-21 09:42 18.00064 -92.68165 6199 ft 284 kts 88°
2026-04-21 09:43 17.99729 -92.66145 7221 ft 285 kts 112°
2026-04-21 09:43 17.98525 -92.64494 8083 ft 291 kts 143°
2026-04-21 09:43 17.96708 -92.63677 9041 ft 291 kts 169°
2026-04-21 09:43 17.94676 -92.63500 9796 ft 299 kts 176°
2026-04-21 09:44 17.92557 -92.63361 10538 ft 306 kts 176°
2026-04-21 09:44 17.90407 -92.63109 11095 ft 319 kts 165°
2026-04-21 09:44 17.88387 -92.62107 11551 ft 334 kts 141°
2026-04-21 09:44 17.86790 -92.60281 11988 ft 349 kts 123°
2026-04-21 09:45 17.85609 -92.57969 12409 ft 364 kts 113°
2026-04-21 09:45 17.84608 -92.55466 12802 ft 380 kts 110°
2026-04-21 09:45 17.83635 -92.52834 13159 ft 396 kts 110°
2026-04-21 09:45 17.82635 -92.50119 13681 ft 406 kts 110°
2026-04-21 09:46 17.81599 -92.47372 14289 ft 411 kts 110°
2026-04-21 09:46 17.80520 -92.44576 14915 ft 416 kts 111°
2026-04-21 09:46 17.79415 -92.41755 15537 ft 420 kts 111°
2026-04-21 09:46 17.78292 -92.38917 16150 ft 425 kts 111°
2026-04-21 09:47 17.77155 -92.36062 16749 ft 428 kts 111°
2026-04-21 09:47 17.75993 -92.33149 17339 ft 432 kts 112°
2026-04-21 09:47 17.74827 -92.30230 17916 ft 436 kts 112°
2026-04-21 09:47 17.73668 -92.27329 18501 ft 439 kts 112°
2026-04-21 09:48 17.72488 -92.24377 19055 ft 443 kts 112°
2026-04-21 09:48 17.71293 -92.21388 19601 ft 447 kts 112°
2026-04-21 09:48 17.70089 -92.18372 20126 ft 451 kts 112°
2026-04-21 09:48 17.68878 -92.15344 20636 ft 455 kts 112°
2026-04-21 09:49 17.67649 -92.12267 21137 ft 459 kts 112°
2026-04-21 09:49 17.66419 -92.09192 21626 ft 463 kts 112°
2026-04-21 09:49 17.65159 -92.06042 22109 ft 467 kts 112°
2026-04-21 09:49 17.63916 -92.02937 22568 ft 470 kts 112°
2026-04-21 09:50 17.62640 -91.99750 23027 ft 474 kts 112°
2026-04-21 09:50 17.61365 -91.96564 23479 ft 478 kts 112°
2026-04-21 09:50 17.60082 -91.93362 23951 ft 482 kts 112°
2026-04-21 09:50 17.58768 -91.90083 24435 ft 486 kts 113°
2026-04-21 09:51 17.57466 -91.86839 24908 ft 490 kts 113°
2026-04-21 09:51 17.56142 -91.83539 25382 ft 493 kts 113°
2026-04-21 09:51 17.54808 -91.80215 25863 ft 497 kts 113°
2026-04-21 09:51 17.53464 -91.76869 26338 ft 500 kts 113°
2026-04-21 09:52 17.52137 -91.73567 26988 ft 497 kts 114°
2026-04-21 09:52 17.50802 -91.70215 27603 ft 496 kts 113°
2026-04-21 09:52 17.49545 -91.66917 28247 ft 494 kts 112°
2026-04-21 09:52 17.48312 -91.63571 28907 ft 492 kts 112°
2026-04-21 09:53 17.47097 -91.60223 29565 ft 490 kts 112°
2026-04-21 09:53 17.45892 -91.56884 30216 ft 489 kts 112°
2026-04-21 09:53 17.44701 -91.53587 30832 ft 487 kts 112°
2026-04-21 09:53 17.43500 -91.50279 31063 ft 491 kts 112°
2026-04-21 09:54 17.41085 -91.43665 31092 ft 483 kts 113°
2026-04-21 09:54 17.38677 -91.37118 30997 ft 481 kts 113°
2026-04-21 09:55 17.36269 -91.30599 31005 ft 483 kts 113°
2026-04-21 09:55 17.33849 -91.24062 31012 ft 483 kts 113°
2026-04-21 09:56 17.31422 -91.17509 31020 ft 483 kts 113°
2026-04-21 09:56 17.28998 -91.10970 31033 ft 483 kts 113°
2026-04-21 09:57 17.26576 -91.04440 31037 ft 483 kts 113°
2026-04-21 09:57 17.24145 -90.97897 31038 ft 483 kts 113°
2026-04-21 09:58 17.21707 -90.91343 31040 ft 483 kts 113°
2026-04-21 09:58 17.19290 -90.84856 31041 ft 483 kts 113°
2026-04-21 09:59 17.16842 -90.78289 31042 ft 483 kts 113°
2026-04-21 09:59 17.14409 -90.71773 31047 ft 483 kts 113°
2026-04-21 10:00 17.11961 -90.65220 31055 ft 483 kts 113°
2026-04-21 10:00 17.09520 -90.58696 31064 ft 483 kts 113°
2026-04-21 10:01 17.07075 -90.52167 31071 ft 483 kts 113°
2026-04-21 10:01 17.04636 -90.45663 31080 ft 483 kts 113°
2026-04-21 10:02 17.00959 -90.35873 31095 ft 483 kts 113°
2026-04-21 10:03 16.98512 -90.29363 31098 ft 483 kts 113°
2026-04-21 10:03 16.96053 -90.22830 31101 ft 483 kts 113°
2026-04-21 10:04 16.93599 -90.16318 31104 ft 483 kts 113°
2026-04-21 10:04 16.91148 -90.09821 31107 ft 483 kts 113°
2026-04-21 10:05 16.88688 -90.03307 31108 ft 482 kts 113°
2026-04-21 10:05 16.86243 -89.96838 31108 ft 482 kts 113°
2026-04-21 10:06 16.83780 -89.90331 31107 ft 483 kts 113°
2026-04-21 10:06 16.81305 -89.83804 31106 ft 483 kts 113°
2026-04-21 10:07 16.78842 -89.77312 31106 ft 483 kts 113°
2026-04-21 10:07 16.76378 -89.70823 31108 ft 483 kts 113°
2026-04-21 10:08 16.73902 -89.64310 31117 ft 483 kts 113°
2026-04-21 10:08 16.71430 -89.57811 31129 ft 482 kts 113°
2026-04-21 10:09 16.68970 -89.51352 31138 ft 482 kts 113°
2026-04-21 10:09 16.66486 -89.44838 31143 ft 482 kts 113°
2026-04-21 10:10 16.64021 -89.38381 31139 ft 482 kts 113°
2026-04-21 10:10 16.61535 -89.31876 31133 ft 482 kts 113°
2026-04-21 10:11 16.59048 -89.25378 31119 ft 483 kts 113°
2026-04-21 10:11 16.56573 -89.18916 31115 ft 483 kts 113°
2026-04-21 10:12 16.54090 -89.12440 31138 ft 483 kts 113°
2026-04-21 10:12 16.51587 -89.05920 31167 ft 483 kts 113°
2026-04-21 10:13 16.49105 -88.99461 31169 ft 483 kts 113°
2026-04-21 10:13 16.47854 -88.96205 30943 ft 480 kts 113°
2026-04-21 10:13 16.46631 -88.93024 30463 ft 476 kts 113°
2026-04-21 10:13 16.45408 -88.89848 29778 ft 476 kts 113°
2026-04-21 10:14 16.44178 -88.86653 28947 ft 480 kts 113°
2026-04-21 10:14 16.42932 -88.83424 28069 ft 485 kts 113°
2026-04-21 10:14 16.41677 -88.80171 26982 ft 491 kts 113°
2026-04-21 10:14 16.40401 -88.76868 25796 ft 496 kts 112°
2026-04-21 10:15 16.39138 -88.73594 24602 ft 483 kts 112°
2026-04-21 10:15 16.37905 -88.70396 23628 ft 470 kts 112°
2026-04-21 10:15 16.36706 -88.67291 22808 ft 465 kts 112°
2026-04-21 10:15 16.35511 -88.64201 22025 ft 459 kts 112°
2026-04-21 10:16 16.34327 -88.61139 21342 ft 451 kts 112°
2026-04-21 10:16 16.33169 -88.58147 20878 ft 448 kts 111°
2026-04-21 10:16 16.31988 -88.55096 20637 ft 456 kts 111°
2026-04-21 10:16 16.30807 -88.52050 20487 ft 456 kts 111°
2026-04-21 10:17 16.29636 -88.49029 20317 ft 447 kts 111°
2026-04-21 10:17 16.28482 -88.46051 20058 ft 444 kts 111°
2026-04-21 10:17 16.27318 -88.43050 19475 ft 453 kts 111°
2026-04-21 10:17 16.26141 -88.40018 18651 ft 453 kts 111°
2026-04-21 10:18 16.24968 -88.36996 18060 ft 445 kts 111°
2026-04-21 10:18 16.23833 -88.34071 17639 ft 434 kts 111°
2026-04-21 10:18 16.22723 -88.31207 17022 ft 428 kts 111°
2026-04-21 10:18 16.21612 -88.28346 16195 ft 426 kts 111°
2026-04-21 10:19 16.20519 -88.25533 15150 ft 414 kts 111°
2026-04-21 10:19 16.19474 -88.22847 14228 ft 401 kts 111°
2026-04-21 10:19 16.18436 -88.20180 13498 ft 398 kts 111°
2026-04-21 10:19 16.17401 -88.17522 12901 ft 385 kts 111°
2026-04-21 10:20 16.16439 -88.15052 12687 ft 354 kts 111°
2026-04-21 10:20 16.15535 -88.12732 12550 ft 346 kts 112°
2026-04-21 10:20 16.14632 -88.10413 12386 ft 347 kts 111°
2026-04-21 10:20 16.13753 -88.08156 12218 ft 324 kts 111°
2026-04-21 10:21 16.12905 -88.06087 12059 ft 302 kts 116°
2026-04-21 10:21 16.11782 -88.04262 11792 ft 302 kts 133°
2026-04-21 10:21 16.10083 -88.02982 11402 ft 299 kts 154°
2026-04-21 10:21 16.08204 -88.02170 11010 ft 289 kts 159°
2026-04-21 10:22 16.06288 -88.01448 10635 ft 296 kts 159°
2026-04-21 10:22 16.04369 -88.00694 10238 ft 293 kts 158°
2026-04-21 10:22 16.02530 -87.99928 9959 ft 278 kts 157°
2026-04-21 10:22 16.00761 -87.99171 9716 ft 273 kts 156°
2026-04-21 10:23 15.98966 -87.98386 9341 ft 283 kts 156°
2026-04-21 10:23 15.97184 -87.97610 8988 ft 276 kts 156°
2026-04-21 10:23 15.95416 -87.96841 8659 ft 274 kts 156°
2026-04-21 10:23 15.93616 -87.96053 8309 ft 281 kts 156°
2026-04-21 10:24 15.91844 -87.95281 7961 ft 274 kts 155°
2026-04-21 10:24 15.90111 -87.94527 7633 ft 273 kts 155°
2026-04-21 10:24 15.88334 -87.93751 7280 ft 279 kts 155°
2026-04-21 10:24 15.86591 -87.92886 6937 ft 268 kts 150°
2026-04-21 10:25 15.85007 -87.91992 6616 ft 255 kts 148°
2026-04-21 10:25 15.83494 -87.91099 6292 ft 243 kts 148°
2026-04-21 10:25 15.82044 -87.90241 5994 ft 232 kts 148°
2026-04-21 10:25 15.80669 -87.89433 5711 ft 223 kts 148°
2026-04-21 10:26 15.79351 -87.88663 5534 ft 209 kts 148°
2026-04-21 10:26 15.78140 -87.87962 5442 ft 191 kts 148°
2026-04-21 10:26 15.77010 -87.87302 5385 ft 184 kts 148°
2026-04-21 10:26 15.75885 -87.86642 5333 ft 185 kts 148°
2026-04-21 10:27 15.74759 -87.85987 5277 ft 184 kts 148°
2026-04-21 10:27 15.73634 -87.85335 5232 ft 183 kts 148°
2026-04-21 10:27 15.72525 -87.84686 5078 ft 184 kts 148°
2026-04-21 10:27 15.71413 -87.84032 4857 ft 182 kts 148°
2026-04-21 10:28 15.70321 -87.83388 4660 ft 181 kts 148°
2026-04-21 10:28 15.69224 -87.82739 4467 ft 181 kts 148°
2026-04-21 10:28 15.68119 -87.82089 4302 ft 179 kts 148°
2026-04-21 10:28 15.67040 -87.81457 4235 ft 178 kts 148°
2026-04-21 10:29 15.65959 -87.80820 4179 ft 179 kts 148°
2026-04-21 10:29 15.64867 -87.80175 4135 ft 178 kts 148°
2026-04-21 10:29 15.63784 -87.79539 4080 ft 178 kts 148°
2026-04-21 10:29 15.62708 -87.78922 4031 ft 178 kts 151°
2026-04-21 10:30 15.61519 -87.78559 3976 ft 180 kts 174°
2026-04-21 10:30 15.60256 -87.78700 3745 ft 183 kts 192°
2026-04-21 10:30 15.59022 -87.79022 3503 ft 180 kts 193°
2026-04-21 10:30 15.57885 -87.79514 3257 ft 180 kts 222°
2026-04-21 10:31 15.57210 -87.80603 3072 ft 177 kts 242°
2026-04-21 10:31 15.56615 -87.81728 2849 ft 183 kts 239°
2026-04-21 10:31 15.55917 -87.82815 2655 ft 177 kts 230°
2026-04-21 10:31 15.55078 -87.83711 2534 ft 173 kts 225°
2026-04-21 10:32 15.54275 -87.84589 2384 ft 162 kts 223°
2026-04-21 10:32 15.53458 -87.85374 1991 ft 162 kts 222°
2026-04-21 10:32 15.52638 -87.86124 1808 ft 154 kts 219°
2026-04-21 10:32 15.51794 -87.86829 1607 ft 155 kts 217°
2026-04-21 10:33 15.50956 -87.87498 1315 ft 150 kts 217°
2026-04-21 10:33 15.50162 -87.88157 1066 ft 142 kts 218°
2026-04-21 10:33 15.49406 -87.88800 863 ft 140 kts 219°
2026-04-21 10:33 15.48651 -87.89452 757 ft 139 kts 219°
2026-04-21 10:34 15.47904 -87.90104 620 ft 143 kts 218°
2026-04-21 10:34 15.47115 -87.90771 427 ft 148 kts 218°
2026-04-21 10:34 15.46305 -87.91452 235 ft 153 kts 220°
2026-04-21 10:34 15.45496 -87.92158 124 ft 151 kts 219°
2026-04-21 10:35 15.44709 -87.92837 112 ft 132 kts 218°
2026-04-21 10:35 15.44546 -87.92969 113 ft 122 kts 216°